SCP
-0 -0 -0 -0 -0 -0 -0 -0 0 -0 -0 -0 -0 0 0 0 0 0 0 0 0 0 0 0 0 0 0 0 1 0 0 0 0 0 0 0 0 0 0 0 0 0 0
-0 -0 -0 -0 0 -0 -0 -0 0 -0 0 0 -0 -0 -0 0 0 0 0 0 0 0 0 0 0 0 0 1 1 0 0 0 0 0 1 1 0 0 0 0 0 0 0
0 0 0 0 -0 0 -0 0 0 -0 0 0 0 -0 -0 -0 -0 0 0 0 0 0 0 0 0 0 0 1 1 1 1 1 0 0 0 0 0 0 0 1 1 0 0
-0 -0 -0 -0 0 0 0 0 0 0 0 0 0 0 -0 -0 -0 0 0 0 0 0 0 0 0 0 0 0 1 0 0 1 0 0 0 0 0 0 0 0 0 1 1
-0 -0 0 0 0 0 0 0 0 0 1 1 1 0 0 0 0 0 0 0 0 0 0 -0 0 0 0 0 0 0 0 0 1 0 0 0 0 0 0 1 1 0 1
-0 0 0 0 0 0 1 1 1 1 1 1 1 0 0 0 0 0 0 0 0 0 0 0 0 0 0 0 0 0 0 0 -0 0 0 0 0 0 0 1 1 0 0
-0 0 0 0 0 0 0 0 0 0 0 0 0 0 0 0 0 0 0 1 0 0 0 0 0 0 0 0 0 0 0 0 0 0 0 0 0 0 1 1 1 1 0
0 0 0 0 0 0 0 0 0 0 0 0 0 0 0 0 0 0 0 1 1 0 0 0 0 0 0 0 0 0 0 0 0 0 0 0 0 1 1 0 1 1 1
0 0 0 0 0 0 0 0 0 0 0 0 0 0 0 0 0 0 0 0 0 0 0 0 0 0 0 0 0 0 0 0 0 0 0 0 0 0 0 1 0 1 1
0 0 0 0 0 0 0 0 0 0 0 0 0 0 0 0 0 0 0 0 0 0 0 0 0 0 0 0 0 0 0 0 0 0 0 0 0 0 0 0 1 1 1
0 0 0 0 0 0 0 0 0 0 0 0 0 0 0 0 0 0 0 0 0 0 0 0 0 0 0 0 0 0 0 0 0 0 0 0 0 0 0 0 0 0 0
0 0 0 0 0 0 0 0 0 0 0 0 0 0 0 0 0 0 0 0 0 0 0 0 0 0 0 0 0 0 0 0 0 0 0 0 0 0 0 0 0 0 0
0 0 0 0 0 0 0 0 0 0 0 0 0 0 0 0 0 0 0 0 0 0 0 0 0 0 0 0 0 0 0 0 0 0 0 0 0 0 0 0 0 0 0
0 0 0 0 0 0 0 0 0 0 0 0 0 0 0 0 0 0 0 0 0 0 0 0 0 0 0 0 0 0 0 0 0 0 0 0 0 0 0 0 0 0 0
0 0 0 0 0 0 0 0 0 0 0 0 0 0 0 0 0 0 0 0 0 0 0 0 0 0 0 0 0 0 0 0 0 0 0 0 0 0 0 0 0 0 0
0 0 0 0 0 0 0 0 0 0 0 0 0 0 0 0 0 0 0 0 0 0 0 0 0 0 0 0 0 0 0 0 0 0 0 0 0 0 0 0 0 0 0
0 0 0 0 0 0 0 0 0 0 0 0 0 0 0 0 -0 -0 -0 0 0 0 0 0 0 0 0 0 0 0 0 0 0 0 0 0 0 0 0 0 0 0 0
0 0 0 0 0 0 0 0 0 0 0 0 0 0 0 0 0 0 -0 -0 0 0 0 0 0 0 0 0 0 0 0 0 0 0 0 0 0 0 0 0 0 0 0
0 0 0 0 0 0 0 0 0 0 0 0 0 0 0 0 0 0 0 0 0 0 0 0 0 0 0 0 0 0 0 0 0 0 0 0 0 0 0 0 0 0 0
0 0 0 0 0 0 0 0 0 0 0 0 0 0 0 0 0 0 0 0 0 0 0 0 0 0 0 0 0 0 0 0 0 0 0 0 0 0 0 0 0 0 0
0 0 0 0 0 0 0 0 0 0 0 0 0 0 0 0 0 0 0 0 0 0 0 0 0 0 0 0 0 0 0 0 0 0 0 0 0 0 0 0 0 0 0
0 0 0 0 0 0 0 0 0 0 0 0 0 0 0 0 0 0 0 0 0 0 0 0 0 0 0 0 0 0 0 0 0 0 0 0 0 0 0 0 0 0 0
0 0 0 0 0 0 0 0 0 0 0 0 0 0 0 0 0 0 0 0 0 0 0 0 0 0 0 0 0 0 0 0 0 0 0 0 0 0 0 0 0 0 0
0 0 0 0 0 0 0 0 0 0 0 0 0 0 0 0 0 0 0 0 0 0 0 0 0 0 0 0 0 0 0 0 0 0 0 0 0 0 0 0 0 0 0
0 0 0 0 0 0 0 0 0 0 0 0 0 0 0 0 0 0 0 0 0 0 0 0 0 0 0 0 0 0 0 0 0 0 0 0 0 0 0 0 0 0 0
0 0 0 0 0 0 0 0 0 0 0 0 0 0 0 0 0 0 0 0 0 0 0 0 0 0 0 0 0 0 0 0 0 0 0 0 0 0 0 0 0 0 0
Wind_Speed_500mb
51 56 60 58 50 43 44 37 29 28 33 37 34 31 32 33 29 26 26 29 36 30 31 29 26 25 29 31 30 32 35 38 38 34 38 35 30 25 21 19 26 33 32
36 39 40 37 41 35 27 25 21 30 36 33 31 32 29 29 29 28 29 28 27 29 31 36 35 37 34 32 32 28 31 36 40 50 43 42 40 33 30 33 30 28 35
36 32 33 30 28 24 26 30 35 37 31 27 27 26 28 28 29 32 31 26 31 33 34 33 36 39 31 33 33 30 28 29 39 43 49 41 46 44 39 36 35 38 42
37 38 33 30 30 32 36 37 31 25 24 26 26 22 28 31 34 36 34 28 28 27 39 38 38 41 43 44 35 29 25 36 36 42 49 43 44 44 47 46 43 44 43
33 34 33 31 30 31 28 24 23 23 23 23 30 37 29 23 24 25 29 26 27 28 33 35 43 52 46 39 39 39 41 31 33 34 42 43 38 35 40 36 43 39 47
33 27 26 25 23 21 19 14 13 13 12 12 16 19 19 23 24 20 21 21 25 29 27 23 26 39 46 41 36 38 32 25 25 29 29 41 43 41 34 37 35 34 37
34 30 24 20 16 13 11 9 10 10 10 13 20 18 16 16 17 17 17 18 23 26 23 19 19 24 35 43 40 37 29 31 28 32 42 43 38 34 35 39 43 43 39
25 21 18 15 13 12 10 9 12 13 13 15 16 16 16 17 17 17 16 17 19 20 19 18 16 16 19 17 14 16 20 26 30 36 41 44 48 48 52 56 58 56 55
18 20 17 14 12 11 8 9 10 11 10 9 9 7 8 10 10 11 14 17 17 16 14 17 18 19 17 16 16 16 14 15 17 19 20 23 27 33 37 38 41 45 50
21 17 15 14 13 9 5 6 6 8 9 10 7 5 6 6 6 6 5 4 5 6 10 14 17 21 23 21 20 21 20 20 20 21 22 24 27 28 29 31 31 38 43
19 15 13 14 14 16 18 18 14 10 8 7 5 7 11 13 13 12 8 7 7 8 9 9 10 12 16 20 22 25 26 29 27 29 30 31 32 32 31 33 36 40 44
18 16 16 16 22 26 20 18 17 17 19 23 22 22 23 23 22 20 18 19 17 17 17 17 15 12 10 12 16 20 23 22 21 24 27 29 29 30 32 39 45 49 51
17 18 21 23 26 24 20 21 23 23 23 24 20 18 18 18 15 13 14 16 17 17 19 20 21 19 17 15 14 13 12 13 16 18 16 15 17 22 26 29 33 38 41
21 25 26 24 26 25 23 22 22 23 21 18 15 13 14 15 16 16 15 15 13 12 11 10 10 12 13 14 14 15 16 17 19 20 21 25 30 32 32 29 31 31 34
27 30 30 30 30 28 24 25 22 19 19 18 17 18 17 22 24 23 21 17 14 12 12 10 10 13 14 17 18 19 17 17 19 23 26 30 34 37 40 44 44 47 43
35 37 36 34 31 28 26 28 23 21 18 17 22 26 29 30 30 30 30 28 25 21 15 17 19 20 22 24 25 26 27 28 29 30 31 33 37 39 41 44 45 44 44
36 36 33 30 32 35 30 28 33 28 19 20 23 25 27 28 29 31 31 29 25 23 21 21 20 19 21 22 23 24 26 27 30 32 35 36 36 36 39 40 42 43 41
33 29 27 30 37 38 35 33 29 22 18 17 18 20 21 23 25 26 26 25 21 23 19 18 17 19 21 20 21 21 26 30 33 35 36 38 38 36 35 36 39 39 38
33 29 34 40 44 41 37 31 25 20 14 13 12 12 13 13 14 16 18 17 15 15 16 16 17 17 19 21 23 25 33 34 39 39 37 39 40 40 44 42 36 43 43
33 35 40 43 43 36 29 25 22 17 11 7 3 1 6 10 7 9 15 21 18 16 17 17 18 20 23 26 27 26 25 28 29 33 36 39 39 38 37 42 41 45 42
43 45 40 39 38 30 27 26 22 15 11 5 2 4 7 9 8 12 17 19 20 20 22 24 26 26 29 31 27 26 26 29 29 41 46 44 45 42 39 40 38 41 44
49 49 42 39 35 32 29 27 23 16 11 7 6 6 8 9 13 16 15 17 20 24 27 29 32 31 34 32 31 30 29 29 34 46 52 50 46 42 41 42 43 43 43
49 47 44 40 37 34 32 27 20 13 9 7 8 7 8 10 12 13 16 19 26 29 33 39 40 42 35 36 36 36 36 37 43 47 52 51 52 49 52 47 44 45 44
48 49 49 44 40 35 28 21 16 12 9 5 7 10 12 15 15 20 27 32 36 40 45 44 39 38 40 40 40 37 38 42 45 50 51 52 56 58 56 50 44 44 49
50 48 44 40 38 34 30 23 15 10 8 3 8 12 14 16 21 27 34 41 46 50 49 43 38 35 30 30 31 30 36 42 49 48 49 55 59 58 50 45 45 46 46
48 46 40 38 38 32 24 18 12 8 7 4 5 12 15 18 22 29 36 44 51 54 48 41 36 30 24 23 29 35 41 42 41 47 52 55 55 50 44 49 51 48 46
Wind_Direction_500mb
238 245 252 256 260 263 266 264 274 276 275 277 279 279 288 290 283 273 274 278 285 278 274 266 254 252 253 255 254 253 253 248 248 258 262 267 265 260 257 237 231 235 232
226 234 237 240 247 246 244 251 260 276 281 274 275 276 276 285 275 272 276 279 287 279 274 255 253 256 255 254 256 254 251 249 255 256 258 263 262 264 266 257 252 239 232
216 220 225 222 225 237 251 261 267 270 271 269 271 275 282 284 275 266 264 269 271 272 272 258 253 256 261 270 254 249 251 252 249 250 257 261 260 258 254 255 259 258 253
212 216 220 225 237 244 252 258 256 250 249 264 278 287 290 288 277 265 264 271 271 269 276 272 249 251 261 293 252 242 277 266 251 248 247 252 260 259 252 254 257 258 258
193 206 217 227 235 235 231 238 244 247 256 268 280 287 283 286 287 276 266 268 267 270 270 273 254 250 254 280 259 255 289 258 242 249 247 255 258 256 257 260 262 258 261
176 185 196 202 206 224 232 245 264 269 271 280 286 287 279 275 279 280 274 273 273 276 278 269 256 253 257 269 258 258 271 243 248 251 252 257 261 264 263 261 259 257 265
170 176 181 187 197 218 240 255 267 264 269 290 294 299 299 291 284 276 259 274 278 283 282 274 259 249 258 266 264 258 245 245 262 265 262 252 253 258 268 268 265 260 263
160 170 184 200 218 227 232 250 255 264 274 278 281 284 288 290 287 283 279 270 268 272 277 280 285 288 288 300 284 267 265 265 272 271 265 267 263 265 270 276 269 265 269
185 190 194 202 206 216 235 249 256 266 269 265 269 288 302 306 306 299 284 276 274 266 260 265 268 269 280 289 296 296 290 280 276 279 282 282 281 272 268 269 268 270 272
188 190 188 191 195 189 184 191 152 124 120 114 95 64 39 18 6 351 332 338 340 300 280 273 257 259 267 270 275 279 281 276 273 270 273 279 282 286 282 279 279 275 279
184 180 174 162 147 129 131 127 116 111 107 100 75 64 59 55 49 41 26 356 330 325 323 321 314 300 290 291 285 289 287 287 287 285 283 282 280 278 283 285 285 281 279
167 164 150 134 125 118 115 109 101 95 99 95 90 84 74 65 58 54 53 48 48 49 48 41 34 14 344 317 304 305 310 316 311 303 301 300 293 289 286 283 282 282 280
165 156 146 139 131 123 118 107 106 102 97 94 88 77 60 45 40 48 55 57 60 53 47 39 29 19 16 11 12 4 351 345 338 336 349 338 331 320 310 310 299 297 292
164 158 153 152 150 141 130 117 114 106 100 92 75 58 49 49 58 62 66 70 68 58 44 24 1 345 339 335 327 327 330 328 326 322 313 309 310 311 312 313 320 317 314
165 166 165 165 164 155 145 131 123 112 103 85 65 71 74 70 65 65 65 64 59 47 29 13 17 17 9 7 3 355 354 348 342 336 330 324 318 313 310 309 308 306 306
172 173 174 170 164 162 155 145 133 121 99 70 77 79 77 70 63 58 55 52 50 51 55 56 51 50 46 40 32 24 16 9 2 356 349 342 334 329 322 319 319 315 312
176 176 177 176 171 165 159 160 150 132 105 80 80 78 74 67 60 54 49 45 42 43 52 53 52 50 42 33 24 17 11 4 359 354 350 348 343 337 334 329 322 321 320
173 173 171 169 164 159 156 154 147 135 112 95 88 77 69 61 53 46 42 39 35 37 42 43 37 32 23 13 5 1 359 357 354 350 346 344 343 339 332 327 325 320 316
168 164 155 149 149 152 153 153 149 139 116 104 86 67 55 47 36 28 23 19 17 15 12 12 11 5 357 351 346 344 343 344 344 345 343 341 340 338 335 332 322 319 314
160 160 154 152 153 155 156 161 158 143 121 121 118 339 352 358 342 338 354 355 342 327 327 335 336 338 340 340 334 331 327 327 336 344 341 339 337 335 331 329 325 323 321
160 159 159 155 154 158 157 155 153 145 133 103 29 310 306 304 313 331 337 338 339 331 311 304 307 313 320 325 322 316 312 317 324 338 341 336 334 331 327 324 315 320 322
163 161 157 153 153 156 154 152 148 141 126 78 34 358 331 332 332 338 347 352 343 331 322 315 305 302 304 305 304 304 302 311 321 328 331 330 328 326 324 320 316 316 317
163 161 156 152 151 151 151 151 149 143 133 69 38 28 13 359 357 360 359 353 343 337 330 321 311 304 300 300 303 304 302 305 312 320 324 325 326 326 325 321 315 312 313
161 158 155 157 156 154 153 157 162 165 157 101 48 46 43 37 25 16 8 355 346 337 332 325 317 308 300 301 303 302 303 308 314 318 319 321 324 326 324 320 314 311 310
161 157 159 162 161 160 161 162 170 183 198 211 24 26 26 17 7 360 355 351 345 338 334 331 326 320 312 301 300 302 306 310 313 314 318 321 323 324 322 316 315 315 310
166 164 164 165 167 169 171 172 175 194 211 259 319 6 5 356 343 341 341 341 340 337 334 331 327 322 319 314 309 308 308 310 312 316 319 322 324 325 321 321 321 315 310
Wind_Speed_850mb
51 56 60 58 50 43 44 37 29 28 33 37 34 31 32 33 29 26 26 29 36 30 31 29 26 25 29 31 30 32 35 38 38 34 38 35 30 25 21 19 26 33 32
36 39 40 37 41 35 27 25 21 30 36 33 31 32 29 29 29 28 29 28 27 29 31 36 35 37 34 32 32 28 31 36 40 50 43 42 40 33 30 33 30 28 35
36 32 33 30 28 24 26 30 35 37 31 27 27 26 28 28 29 32 31 26 31 33 34 33 36 39 31 33 33 30 28 29 39 43 49 41 46 44 39 36 35 38 42
37 38 33 30 30 32 36 37 31 25 24 26 26 22 28 31 34 36 34 28 28 27 39 38 38 41 43 44 35 29 25 36 36 42 49 43 44 44 47 46 43 44 43
33 34 33 31 30 31 28 24 23 23 23 23 30 37 29 23 24 25 29 26 27 28 33 35 43 52 46 39 39 39 41 31 33 34 42 43 38 35 40 36 43 39 47
33 27 26 25 23 21 19 14 13 13 12 12 16 19 19 23 24 20 21 21 25 29 27 23 26 39 46 41 36 38 32 25 25 29 29 41 43 41 34 37 35 34 37
34 30 24 20 16 13 11 9 10 10 10 13 20 18 16 16 17 17 17 18 23 26 23 19 19 24 35 43 40 37 29 31 28 32 42 43 38 34 35 39 43 43 39
25 21 18 15 13 12 10 9 12 13 13 15 16 16 16 17 17 17 16 17 19 20 19 18 16 16 19 17 14 16 20 26 30 36 41 44 48 48 52 56 58 56 55
18 20 17 14 12 11 8 9 10 11 10 9 9 7 8 10 10 11 14 17 17 16 14 17 18 19 17 16 16 16 14 15 17 19 20 23 27 33 37 38 41 45 50
21 17 15 14 13 9 5 6 6 8 9 10 7 5 6 6 6 6 5 4 5 6 10 14 17 21 23 21 20 21 20 20 20 21 22 24 27 28 29 31 31 38 43
19 15 13 14 14 16 18 18 14 10 8 7 5 7 11 13 13 12 8 7 7 8 9 9 10 12 16 20 22 25 26 29 27 29 30 31 32 32 31 33 36 40 44
18 16 16 16 22 26 20 18 17 17 19 23 22 22 23 23 22 20 18 19 17 17 17 17 15 12 10 12 16 20 23 22 21 24 27 29 29 30 32 39 45 49 51
17 18 21 23 26 24 20 21 23 23 23 24 20 18 18 18 15 13 14 16 17 17 19 20 21 19 17 15 14 13 12 13 16 18 16 15 17 22 26 29 33 38 41
21 25 26 24 26 25 23 22 22 23 21 18 15 13 14 15 16 16 15 15 13 12 11 10 10 12 13 14 14 15 16 17 19 20 21 25 30 32 32 29 31 31 34
27 30 30 30 30 28 24 25 22 19 19 18 17 18 17 22 24 23 21 17 14 12 12 10 10 13 14 17 18 19 17 17 19 23 26 30 34 37 40 44 44 47 43
35 37 36 34 31 28 26 28 23 21 18 17 22 26 29 30 30 30 30 28 25 21 15 17 19 20 22 24 25 26 27 28 29 30 31 33 37 39 41 44 45 44 44
36 36 33 30 32 35 30 28 33 28 19 20 23 25 27 28 29 31 31 29 25 23 21 21 20 19 21 22 23 24 26 27 30 32 35 36 36 36 39 40 42 43 41
33 29 27 30 37 38 35 33 29 22 18 17 18 20 21 23 25 26 26 25 21 23 19 18 17 19 21 20 21 21 26 30 33 35 36 38 38 36 35 36 39 39 38
33 29 34 40 44 41 37 31 25 20 14 13 12 12 13 13 14 16 18 17 15 15 16 16 17 17 19 21 23 25 33 34 39 39 37 39 40 40 44 42 36 43 43
33 35 40 43 43 36 29 25 22 17 11 7 3 1 6 10 7 9 15 21 18 16 17 17 18 20 23 26 27 26 25 28 29 33 36 39 39 38 37 42 41 45 42
43 45 40 39 38 30 27 26 22 15 11 5 2 4 7 9 8 12 17 19 20 20 22 24 26 26 29 31 27 26 26 29 29 41 46 44 45 42 39 40 38 41 44
49 49 42 39 35 32 29 27 23 16 11 7 6 6 8 9 13 16 15 17 20 24 27 29 32 31 34 32 31 30 29 29 34 46 52 50 46 42 41 42 43 43 43
49 47 44 40 37 34 32 27 20 13 9 7 8 7 8 10 12 13 16 19 26 29 33 39 40 42 35 36 36 36 36 37 43 47 52 51 52 49 52 47 44 45 44
48 49 49 44 40 35 28 21 16 12 9 5 7 10 12 15 15 20 27 32 36 40 45 44 39 38 40 40 40 37 38 42 45 50 51 52 56 58 56 50 44 44 49
50 48 44 40 38 34 30 23 15 10 8 3 8 12 14 16 21 27 34 41 46 50 49 43 38 35 30 30 31 30 36 42 49 48 49 55 59 58 50 45 45 46 46
48 46 40 38 38 32 24 18 12 8 7 4 5 12 15 18 22 29 36 44 51 54 48 41 36 30 24 23 29 35 41 42 41 47 52 55 55 50 44 49 51 48 46
Wind_Direction_850mb
238 245 252 256 260 263 266 264 274 276 275 277 279 279 288 290 283 273 274 278 285 278 274 266 254 252 253 255 254 253 253 248 248 258 262 267 265 260 257 237 231 235 232
226 234 237 240 247 246 244 251 260 276 281 274 275 276 276 285 275 272 276 279 287 279 274 255 253 256 255 254 256 254 251 249 255 256 258 263 262 264 266 257 252 239 232
216 220 225 222 225 237 251 261 267 270 271 269 271 275 282 284 275 266 264 269 271 272 272 258 253 256 261 270 254 249 251 252 249 250 257 261 260 258 254 255 259 258 253
212 216 220 225 237 244 252 258 256 250 249 264 278 287 290 288 277 265 264 271 271 269 276 272 249 251 261 293 252 242 277 266 251 248 247 252 260 259 252 254 257 258 258
193 206 217 227 235 235 231 238 244 247 256 268 280 287 283 286 287 276 266 268 267 270 270 273 254 250 254 280 259 255 289 258 242 249 247 255 258 256 257 260 262 258 261
176 185 196 202 206 224 232 245 264 269 271 280 286 287 279 275 279 280 274 273 273 276 278 269 256 253 257 269 258 258 271 243 248 251 252 257 261 264 263 261 259 257 265
170 176 181 187 197 218 240 255 267 264 269 290 294 299 299 291 284 276 259 274 278 283 282 274 259 249 258 266 264 258 245 245 262 265 262 252 253 258 268 268 265 260 263
160 170 184 200 218 227 232 250 255 264 274 278 281 284 288 290 287 283 279 270 268 272 277 280 285 288 288 300 284 267 265 265 272 271 265 267 263 265 270 276 269 265 269
185 190 194 202 206 216 235 249 256 266 269 265 269 288 302 306 306 299 284 276 274 266 260 265 268 269 280 289 296 296 290 280 276 279 282 282 281 272 268 269 268 270 272
188 190 188 191 195 189 184 191 152 124 120 114 95 64 39 18 6 351 332 338 340 300 280 273 257 259 267 270 275 279 281 276 273 270 273 279 282 286 282 279 279 275 279
184 180 174 162 147 129 131 127 116 111 107 100 75 64 59 55 49 41 26 356 330 325 323 321 314 300 290 291 285 289 287 287 287 285 283 282 280 278 283 285 285 281 279
167 164 150 134 125 118 115 109 101 95 99 95 90 84 74 65 58 54 53 48 48 49 48 41 34 14 344 317 304 305 310 316 311 303 301 300 293 289 286 283 282 282 280
165 156 146 139 131 123 118 107 106 102 97 94 88 77 60 45 40 48 55 57 60 53 47 39 29 19 16 11 12 4 351 345 338 336 349 338 331 320 310 310 299 297 292
164 158 153 152 150 141 130 117 114 106 100 92 75 58 49 49 58 62 66 70 68 58 44 24 1 345 339 335 327 327 330 328 326 322 313 309 310 311 312 313 320 317 314
165 166 165 165 164 155 145 131 123 112 103 85 65 71 74 70 65 65 65 64 59 47 29 13 17 17 9 7 3 355 354 348 342 336 330 324 318 313 310 309 308 306 306
172 173 174 170 164 162 155 145 133 121 99 70 77 79 77 70 63 58 55 52 50 51 55 56 51 50 46 40 32 24 16 9 2 356 349 342 334 329 322 319 319 315 312
176 176 177 176 171 165 159 160 150 132 105 80 80 78 74 67 60 54 49 45 42 43 52 53 52 50 42 33 24 17 11 4 359 354 350 348 343 337 334 329 322 321 320
173 173 171 169 164 159 156 154 147 135 112 95 88 77 69 61 53 46 42 39 35 37 42 43 37 32 23 13 5 1 359 357 354 350 346 344 343 339 332 327 325 320 316
168 164 155 149 149 152 153 153 149 139 116 104 86 67 55 47 36 28 23 19 17 15 12 12 11 5 357 351 346 344 343 344 344 345 343 341 340 338 335 332 322 319 314
160 160 154 152 153 155 156 161 158 143 121 121 118 339 352 358 342 338 354 355 342 327 327 335 336 338 340 340 334 331 327 327 336 344 341 339 337 335 331 329 325 323 321
160 159 159 155 154 158 157 155 153 145 133 103 29 310 306 304 313 331 337 338 339 331 311 304 307 313 320 325 322 316 312 317 324 338 341 336 334 331 327 324 315 320 322
163 161 157 153 153 156 154 152 148 141 126 78 34 358 331 332 332 338 347 352 343 331 322 315 305 302 304 305 304 304 302 311 321 328 331 330 328 326 324 320 316 316 317
163 161 156 152 151 151 151 151 149 143 133 69 38 28 13 359 357 360 359 353 343 337 330 321 311 304 300 300 303 304 302 305 312 320 324 325 326 326 325 321 315 312 313
161 158 155 157 156 154 153 157 162 165 157 101 48 46 43 37 25 16 8 355 346 337 332 325 317 308 300 301 303 302 303 308 314 318 319 321 324 326 324 320 314 311 310
161 157 159 162 161 160 161 162 170 183 198 211 24 26 26 17 7 360 355 351 345 338 334 331 326 320 312 301 300 302 306 310 313 314 318 321 323 324 322 316 315 315 310
166 164 164 165 167 169 171 172 175 194 211 259 319 6 5 356 343 341 341 341 340 337 334 331 327 322 319 314 309 308 308 310 312 316 319 322 324 325 321 321 321 315 310